Regional Weather Roundup
Issued by NWS

Home | Current Version | Previous Version | Graphics & Text | Print | Product List | Glossary On
Versions: 1 2 3 4 5 6 7 8 9 10 11 12 13 14 15 16 17 18 19 20 21 22 23 24 25 26 27 28
000
ASUS45 KSLC 240210
RWRUT

UTAH REGIONAL WEATHER ROUNDUP
NATIONAL WEATHER SERVICE SALT LAKE CITY UT
800 PM MDT TUE MAY 23 2017

UTZ001>011-023>025-240300-

NORTHERN UTAH

CITY           SKY/WX    TMP DP  RH WIND       PRES   REMARKS
BRIGHAM CITY   CLEAR     76  31  19 SE3       30.03F
HILL AFB       CLEAR     75  28  17 CALM      30.06F
LOGAN          CLEAR     76  39  26 S5        30.03F
OGDEN          CLEAR     75  26  16 CALM      30.03F
SALT LAKE CITY PTCLDY    78  39  24 N8        30.02F
TOOELE VALLEY  CLEAR     73  46  38 CALM      30.04F
WENDOVER       CLEAR     81  35  19 E6        30.00F
HEBER CITY     CLEAR     72  30  21 N3        30.09S
WEST JORDAN    CLEAR     76  51  40 NW7       30.06S

$$

UTZ011>015-024>027-240300-

CENTRAL/NORTHEAST UTAH

CITY           SKY/WX    TMP DP  RH WIND       PRES   REMARKS
PROVO AIRPORT  CLEAR     73  47  39 W6        30.05F
MOAB/CANYONLAN CLEAR     74  27  17 SE10      30.02F
DELTA          CLEAR     77  28  16 SW3       30.04F
PRICE          CLEAR     73  28  18 NW10G21   30.09S
RICHFIELD      CLEAR     72  36  26 CALM      30.11S
ROOSEVELT      CLEAR     70  32  24 NE5       30.09F
VERNAL         CLEAR     68  35  29 SE5       30.07F

$$

UTZ013>016-019>022-027-240300-

SOUTHERN UTAH

CITY           SKY/WX    TMP DP  RH WIND       PRES   REMARKS
BRYCE CANYON   CLEAR     67  20  16 NW15      30.24S
CEDAR CITY     CLEAR     77  30  17 NE9       30.08F
MILFORD        CLEAR     80  28  15 NE3       30.04F
ST GEORGE      CLEAR     91  28  10 SW9       29.89F
HANKSVILLE     CLEAR     81  30  16 SE6       30.02F
KANAB          CLEAR     81  27  13 W8        30.08S
BLANDING       CLEAR     68  31  24 N3        30.20S

$$

REGIONAL REPORTS     COLORADO/ARIZONA

CITY           SKY/WX    TMP DP  RH WIND       PRES   REMARKS
CRAIG, CO      CLEAR     57  32  38 S8        30.15S
GRAND JUNCTION CLEAR     71  27  19 SE8       30.06F
RIFLE, CO      CLEAR     67  26  21 N3        30.12F
MONTROSE, CO   CLEAR     65  23  20 W5        30.14F
CORTEZ, CO     CLEAR     66  25  21 N8        30.13R
COLORADO CITY    N/A     84  30  14 SW3       30.08S
PAGE, AZ       CLEAR     81  34  18 NE3       30.00F
GRAND CANYON   CLEAR     72  19  13 N5        30.20S
KINGMAN, AZ    CLEAR     91  25   9 N8        29.95S
FLAGSTAFF, AZ  CLEAR     70  25  18 N3        30.20R

$$

REGIONAL REPORTS    NEVADA/IDAHO/WYOMING

CITY           SKY/WX    TMP DP  RH WIND       PRES   REMARKS
LAS VEGAS, NV  PTCLDY    98  19   6 E10       29.81F HX  91
ELY, NY        CLEAR     78  29  16 N10       30.12F
ELKO, NV       CLEAR     79  31  17 W10       30.06F
POCATELLO, ID  CLEAR     74  33  22 SW14      30.01F
BURLEY, ID     CLEAR     75  41  29 W6        29.98F
FORT BRIDGER,    N/A     65  33  30 NW18      30.19S
EVANSTON, WY   CLEAR     63  38  39 W14       30.19S
ROCK SPRINGS,  CLOUDY    64  33  31 W9        30.12F
KEMMERER, WY     N/A     61  36  39 W15       30.18S

$$




USA.gov is the U.S. government's official web portal to all federal, state and local government web resources and services.